Wind_Speed
3 3 4 2 2 4 3 4 5 4 4 4 5 7 5 6 7 7 4 8 9 6 5 7 8 7 4 4 4 4 6 8 10 10 9 8 7 7 6 6 7 7 8 9 10 11 11 12 12 12 12 11 11 10 10 10 10 10 9 9 10 10 11 11 12 12 12 12 14 18 19 19 19 19 19 20 22 23 24 25 24 24 25 27 29 28 28
4 4 3 2 4 4 4 5 6 5 6 7 8 9 6 8 10 5 2 6 9 5 4 5 4 4 3 3 2 5 8 10 10 10 8 7 6 6 6 7 7 8 8 9 11 12 12 13 14 14 15 15 15 15 14 14 14 13 13 13 13 14 14 14 15 15 15 15 15 15 15 15 16 17 18 18 19 19 19 20 21 23 26 28 31 31 30
4 3 3 4 5 6 7 7 5 4 7 8 7 7 4 5 8 5 3 8 8 5 5 7 5 4 4 4 3 6 10 11 11 9 7 6 5 5 6 7 8 9 10 10 11 12 13 14 15 16 17 17 17 18 18 18 17 17 17 16 16 16 16 16 17 18 18 18 18 17 17 16 16 17 18 18 17 17 16 17 19 24 27 29 31 31 30
5 3 6 7 4 5 8 7 6 9 10 7 5 5 5 6 8 8 7 8 7 3 5 8 8 7 8 7 4 7 10 11 11 8 6 6 6 7 8 9 10 10 11 12 12 13 13 14 15 16 17 18 19 20 20 20 20 20 20 20 20 19 19 18 18 19 20 21 20 20 19 18 19 19 19 19 17 15 15 16 18 22 27 30 32 31 30
4 2 3 3 3 6 8 5 6 11 11 8 8 7 6 7 7 7 6 5 3 2 2 5 4 3 4 4 4 7 10 12 10 7 6 7 8 9 10 11 11 12 13 13 13 14 14 15 15 16 17 18 20 21 21 22 22 22 22 22 23 22 21 21 20 20 21 21 22 21 20 20 21 21 22 21 18 15 15 16 17 22 28 32 32 32 30
3 1 3 2 3 7 4 1 2 7 8 9 10 8 4 3 4 4 4 3 3 3 3 3 1 2 2 2 3 5 8 11 9 6 7 7 9 10 11 12 13 14 14 15 15 15 16 17 17 18 19 20 21 22 22 23 22 23 23 23 24 24 23 23 22 22 22 22 22 21 21 21 22 23 24 23 19 15 15 16 18 23 30 33 33 31 29
2 2 2 3 6 5 2 2 1 4 5 5 6 3 3 3 2 3 4 4 4 4 3 1 2 3 4 3 2 1 6 11 7 6 8 9 10 12 13 14 14 15 16 17 17 18 18 19 20 20 21 22 23 23 23 23 23 23 24 24 24 24 24 24 23 23 23 23 23 22 21 21 22 24 25 25 21 17 15 16 19 25 31 34 33 30 26
1 1 3 4 3 4 5 4 1 2 2 1 2 1 4 5 3 2 3 4 3 2 2 2 2 4 5 5 5 4 4 9 4 5 9 10 11 12 14 15 16 17 18 18 19 20 21 21 22 22 23 24 25 25 24 24 24 23 24 25 24 24 24 23 22 22 22 23 23 23 22 22 22 24 25 25 21 16 15 16 20 27 32 33 32 28 25
2 2 3 3 4 6 5 2 1 1 1 1 1 1 3 4 3 2 4 7 6 5 5 5 4 5 4 2 7 9 5 2 1 7 10 11 13 14 15 16 17 17 18 19 20 21 22 22 23 24 25 26 27 27 26 25 25 24 25 25 25 24 23 22 21 21 21 22 22 23 22 22 23 24 24 22 17 15 16 19 23 31 34 32 28 25 22
2 2 3 3 3 4 3 1 1 1 2 1 2 2 2 2 4 4 5 6 7 6 7 7 6 4 2 2 2 7 7 6 7 9 11 13 14 15 16 17 18 18 19 19 21 22 23 24 24 25 27 28 29 29 28 27 26 26 26 26 25 25 24 23 21 20 21 22 23 23 22 22 23 24 22 18 15 15 18 22 27 32 32 28 24 20 17
2 3 4 3 3 2 1 1 1 1 2 3 3 3 2 2 5 7 5 5 7 6 7 8 6 3 2 2 2 7 10 12 12 12 13 14 15 16 17 18 19 19 20 20 22 22 24 25 25 26 28 28 29 29 28 27 27 27 27 26 26 26 26 25 23 21 21 22 24 24 23 22 23 24 22 18 16 19 22 27 31 32 28 23 19 16 14
2 3 3 3 3 2 1 2 3 2 2 3 4 5 2 1 6 8 5 5 6 6 5 5 3 2 3 4 8 13 16 16 15 16 17 17 18 19 19 18 19 20 20 21 22 23 25 26 26 27 28 28 28 28 28 27 28 27 27 26 27 27 28 27 25 23 22 23 24 25 24 24 24 23 19 16 18 23 27 29 28 25 22 19 15 13 10
3 4 3 3 2 2 1 2 3 1 2 3 4 3 2 5 9 9 5 4 7 8 6 3 2 5 7 9 13 17 19 19 20 19 20 20 20 21 20 19 19 19 20 21 23 24 25 26 26 27 27 27 28 27 27 28 27 27 27 27 28 29 29 28 26 24 24 24 24 24 25 23 20 18 17 17 21 26 29 27 22 19 17 15 12 9 7
1 2 2 3 3 1 1 2 3 2 2 2 3 4 8 10 11 10 8 6 7 9 9 8 8 11 13 14 16 18 20 22 22 22 23 23 22 22 21 20 19 20 21 22 23 24 25 25 26 25 24 26 26 26 27 27 27 27 27 28 29 30 30 29 27 25 24 23 22 23 22 19 18 19 19 20 23 27 27 23 18 16 13 10 9 8 7
1 2 2 3 3 1 2 4 4 2 1 3 4 8 14 16 15 13 12 9 9 11 12 13 14 15 16 16 18 20 21 23 24 24 24 24 24 23 23 21 20 21 22 23 24 25 25 25 24 21 22 24 25 25 26 27 27 28 28 28 30 31 30 28 26 24 21 18 18 19 19 19 21 22 23 24 25 25 22 19 16 14 10 8 7 5 3
1 2 2 0 1 2 2 5 5 4 6 7 9 12 16 19 18 15 12 13 13 14 15 16 17 17 18 19 20 22 24 24 25 26 26 25 25 25 24 23 21 21 23 24 25 25 25 24 21 20 21 23 24 25 27 27 28 29 29 29 31 30 27 24 21 17 14 13 14 16 18 22 24 26 28 29 26 23 20 17 15 13 12 11 10 8 6
2 4 5 6 7 7 8 10 9 9 11 14 17 19 17 16 16 14 13 15 16 15 16 18 19 20 21 22 23 24 26 26 26 27 27 26 26 25 24 23 21 22 24 25 25 25 24 22 20 20 22 24 25 26 27 27 29 30 29 29 28 23 19 15 12 11 12 13 14 17 22 26 29 32 31 28 26 23 20 18 17 17 16 15 13 10 8
4 6 7 9 12 12 13 14 15 15 16 16 18 19 16 13 16 18 18 18 18 18 19 20 21 22 22 24 25 26 27 27 27 27 27 26 26 25 24 23 22 23 24 25 25 25 23 20 19 21 23 24 25 26 26 27 30 29 27 23 18 14 12 11 11 12 14 17 22 26 29 30 30 29 27 25 25 23 20 19 19 18 17 15 13 11 10
4 4 3 5 10 13 16 21 23 21 18 16 18 19 17 17 20 21 20 21 22 21 21 21 23 23 23 24 26 27 28 28 28 27 26 26 25 25 24 23 23 23 24 25 25 24 22 20 19 21 24 24 25 25 25 26 27 24 19 13 10 10 11 12 13 17 24 30 32 32 31 29 27 26 23 23 23 23 23 22 21 19 16 14 13 11 11
5 7 8 13 18 19 19 21 20 17 17 18 20 22 22 22 23 23 22 23 23 23 22 22 23 24 23 24 26 27 28 29 28 27 27 26 26 26 26 25 24 24 25 24 24 23 22 20 19 21 23 24 23 22 22 23 20 15 10 8 8 10 15 21 26 30 32 33 33 31 30 28 27 26 25 24 25 25 24 22 21 19 16 14 13 12 12
8 8 10 12 14 14 15 17 17 17 20 23 24 25 27 27 26 25 25 24 24 24 23 22 21 23 24 24 25 27 28 29 29 29 28 27 28 28 27 26 25 25 24 23 22 22 21 19 19 21 23 22 20 18 17 14 9 4 5 7 13 20 26 31 32 32 32 31 32 32 31 29 28 28 27 26 26 25 23 20 19 17 15 15 14 13 14
7 7 9 12 10 9 15 22 24 21 22 24 26 28 31 31 30 29 27 25 23 22 20 19 20 22 25 26 27 28 28 29 30 30 30 30 30 29 27 26 26 25 23 22 21 21 19 18 18 20 21 19 15 11 8 2 5 10 16 23 29 31 33 33 32 30 30 29 30 30 30 30 30 29 27 24 22 21 20 18 16 14 13 13 13 14 15
8 11 15 16 13 12 18 27 32 29 26 26 27 30 32 33 32 29 25 23 22 21 20 20 21 23 26 27 27 28 29 29 30 30 30 30 29 28 27 26 25 24 22 21 21 20 18 17 18 19 18 15 10 4 2 11 20 26 32 37 37 34 32 30 29 27 25 26 28 29 29 28 27 26 25 23 20 18 16 14 13 12 12 12 13 14 15
11 16 20 19 17 18 22 29 35 36 31 26 25 27 28 27 26 23 21 21 23 24 24 25 25 25 27 27 26 27 29 29 29 29 29 28 28 27 26 25 24 24 23 21 20 19 18 17 18 17 14 13 10 7 12 22 30 34 35 35 34 32 30 28 26 25 23 24 26 27 26 23 22 22 23 22 19 15 13 11 11 10 10 11 12 13 15
15 21 25 23 21 22 24 27 29 29 27 23 22 22 22 21 21 22 24 26 26 26 28 29 28 26 25 26 26 27 28 28 27 26 26 25 25 25 25 24 24 23 23 22 21 21 19 18 17 15 14 15 14 15 22 28 30 30 29 30 31 30 28 27 25 23 21 22 24 24 22 21 20 20 19 19 17 14 11 9 8 8 9 10 11 13 15
22 25 27 25 22 21 21 21 21 21 21 22 22 23 23 22 22 24 26 28 28 27 27 28 27 25 24 25 27 27 26 26 24 22 22 23 23 23 23 23 23 24 24 24 23 22 20 17 15 15 15 15 16 22 28 29 27 27 28 28 27 27 25 23 22 20 19 20 22 22 20 19 18 17 17 16 14 12 10 7 5 5 7 9 10 12 14
23 22 20 19 18 18 20 21 22 23 23 22 22 23 23 21 20 21 22 23 23 22 22 23 23 24 24 25 26 24 23 22 21 20 21 21 22 23 23 24 25 25 24 23 23 21 18 14 14 16 16 17 23 28 30 28 26 25 24 22 21 22 22 20 18 18 18 18 19 20 18 17 16 15 14 13 12 10 8 6 3 3 5 7 9 11 13
20 17 15 16 18 21 22 23 23 24 23 20 19 21 22 21 19 18 19 19 20 21 22 22 23 24 24 23 22 20 19 18 18 19 20 21 23 25 27 27 25 21 19 18 17 16 14 13 16 19 20 26 30 30 27 24 22 21 19 18 17 18 18 18 17 17 15 14 16 17 15 14 13 12 11 10 8 7 5 3 2 3 5 7 9 11 12
19 18 18 20 21 22 22 22 21 21 21 18 16 17 19 19 19 19 21 21 21 22 22 22 21 20 19 18 17 16 16 16 17 19 21 23 25 25 24 21 16 11 9 9 10 10 10 14 20 24 27 30 29 25 21 19 18 16 15 14 13 14 15 16 17 16 13 12 13 15 12 10 9 8 8 7 6 4 2 1 3 5 7 9 10 11 12
21 21 22 21 19 18 19 20 19 19 19 17 16 17 18 18 19 20 20 19 19 18 17 14 13 13 13 12 12 13 13 14 16 17 19 20 21 20 17 12 9 7 7 7 6 8 11 17 24 28 30 29 26 22 18 17 15 13 12 12 12 13 14 14 15 15 13 11 12 13 12 8 6 6 6 5 3 2 1 3 5 6 8 10 10 10 11
24 23 21 19 17 17 18 17 17 17 17 15 14 15 15 14 15 16 16 16 15 12 8 6 6 7 7 7 7 8 9 9 9 10 10 11 12 12 11 9 8 9 8 7 10 13 16 22 27 29 29 27 23 19 17 15 13 11 12 14 14 14 14 14 12 11 12 12 11 11 11 9 7 6 5 3 2 2 3 4 5 7 8 10 10 11 12
22 21 18 15 15 16 16 16 17 17 16 15 14 15 14 12 13 14 13 12 9 4 2 2 2 2 2 2 3 3 2 1 1 1 2 2 1 1 2 4 7 10 11 14 16 17 18 21 25 28 27 23 18 16 15 12 9 9 12 14 13 12 12 12 10 10 12 12 11 10 11 11 10 8 5 3 1 2 3 4 5 7 8 10 11 12 13
17 17 16 16 17 17 17 18 18 18 17 17 16 14 11 9 9 7 5 2 2 3 4 4 5 4 4 4 4 5 5 6 7 9 11 12 13 12 12 11 12 14 14 15 16 18 21 24 25 24 21 15 12 13 12 9 7 8 11 12 12 12 12 11 11 12 13 13 10 10 11 11 9 7 4 2 1 2 3 4 6 7 9 11 12 13 12
14 15 16 18 19 18 18 18 18 16 16 15 12 8 5 2 1 3 6 7 8 8 8 8 8 9 10 11 13 13 13 13 14 15 17 19 20 21 21 19 18 18 19 19 19 22 24 23 20 17 13 10 9 9 9 9 8 9 11 12 12 13 13 12 12 12 12 10 9 10 10 9 7 5 3 2 1 3 4 5 6 7 9 10 11 11 10
14 15 17 18 17 16 15 15 14 11 9 7 4 4 5 7 9 10 10 11 12 12 13 14 16 18 20 23 25 26 26 25 24 23 23 25 26 27 28 28 26 25 26 26 25 24 21 17 15 13 11 10 10 10 10 10 9 10 11 12 12 11 11 12 12 11 9 8 8 9 9 7 5 3 2 2 3 4 4 5 6 8 8 9 9 9 9
14 15 17 17 15 13 11 10 7 2 3 7 9 11 12 12 13 14 15 16 17 18 19 21 23 25 27 28 30 31 32 32 31 30 30 32 33 34 34 35 34 34 34 34 31 27 23 19 17 15 14 14 14 14 13 11 9 9 10 11 10 9 9 10 10 9 8 7 8 8 6 5 3 3 2 3 4 4 5 6 7 8 9 9 9 9 9
15 15 15 12 8 5 4 5 6 8 11 13 14 15 16 17 18 19 20 21 21 22 23 23 25 26 27 27 28 29 30 32 32 32 32 34 37 39 40 41 41 40 39 35 31 27 24 22 19 18 17 17 16 14 12 10 9 9 9 8 7 7 8 8 8 7 7 7 7 6 4 3 2 2 3 4 5 6 7 7 8 9 9 9 9 9 9
14 11 7 6 8 10 11 13 14 15 17 19 21 21 23 24 24 24 25 24 23 22 22 22 23 24 24 24 25 27 28 29 31 32 33 34 37 41 42 42 42 40 37 32 28 26 25 22 19 18 17 16 15 14 12 10 10 10 9 6 5 6 7 7 7 7 7 7 5 4 2 2 2 3 4 5 6 7 7 8 8 9 9 10 10 10 9
10 8 11 13 14 15 17 19 20 22 24 27 27 27 26 26 26 26 26 25 23 21 21 21 21 22 22 23 24 27 27 27 28 30 32 33 35 38 39 37 36 33 29 26 24 25 24 22 20 20 19 17 16 15 14 12 11 10 9 7 6 7 7 8 8 8 6 4 2 1 2 3 3 4 5 5 6 6 7 8 9 9 9 10 10 9 9
10 13 15 16 18 21 24 27 28 28 28 29 29 28 27 26 26 26 26 25 23 21 21 22 22 22 22 22 23 25 25 25 26 27 28 29 31 33 34 33 30 27 24 23 23 23 22 21 20 21 20 19 17 15 14 12 9 8 8 7 7 7 7 7 7 7 5 3 2 2 3 3 4 4 4 4 5 5 6 7 8 8 8 9 9 9 8
13 16 18 22 25 27 28 29 29 28 27 27 27 26 24 23 23 23 23 23 21 20 20 20 20 21 21 22 24 24 24 24 24 24 25 25 27 29 30 29 26 22 21 20 19 19 18 17 18 19 19 18 17 15 13 11 10 9 8 8 7 6 6 6 5 5 4 3 2 2 2 2 3 3 3 3 4 5 5 5 6 6 7 8 8 8 8
16 19 22 25 26 26 26 26 26 26 25 24 23 22 21 20 21 21 22 21 20 19 19 18 18 19 20 22 23 23 23 24 24 23 23 25 26 26 26 24 21 18 17 16 15 15 15 15 16 16 16 16 15 14 12 11 10 9 8 8 7 6 6 5 4 4 3 3 2 2 1 1 2 2 1 1 2 3 3 4 5 6 7 8 9 9 9
17 19 23 24 23 23 23 23 22 22 22 21 20 20 19 19 20 21 20 20 20 19 19 18 18 19 19 20 20 21 21 22 22 22 23 24 25 24 23 22 19 16 15 14 13 13 14 14 15 15 14 14 13 12 10 10 9 8 7 6 6 5 4 3 3 3 2 2 2 2 1 1 1 0 1 1 2 3 3 4 5 6 7 8 9 10 10
17 17 20 22 21 19 20 20 19 19 19 19 18 18 19 19 19 19 19 20 20 20 19 19 20 19 19 19 20 20 20 19 19 20 20 21 21 21 20 19 17 16 14 13 12 12 12 13 13 13 12 11 10 10 9 9 8 8 7 6 5 5 4 4 3 3 2 2 2 2 1 1 1 2 2 2 2 3 4 5 5 6 7 8 8 9 10
18 16 18 19 19 17 17 16 16 16 17 17 17 17 17 18 18 18 18 18 19 19 19 19 19 19 19 19 19 19 18 18 18 18 18 18 19 19 17 15 14 13 12 11 10 10 10 11 11 10 9 9 8 8 7 7 7 7 6 6 6 5 5 4 4 4 3 3 3 2 2 2 2 2 2 3 3 4 4 4 4 4 5 6 7 8 9
18 18 17 17 17 15 14 13 13 14 14 15 15 16 16 16 16 16 16 16 17 17 18 18 19 19 19 19 18 18 18 17 17 18 18 18 18 17 15 13 12 11 10 8 8 8 8 8 8 7 7 7 7 6 6 6 6 5 5 5 5 5 5 4 4 4 4 3 3 3 3 2 2 3 4 6 6 6 6 6 6 7 7 8 8 8 9
15 17 16 16 15 14 12 11 10 11 12 12 14 14 14 13 14 15 15 15 15 15 16 16 17 17 16 16 16 17 17 17 16 17 17 18 17 16 15 14 13 12 11 10 9 8 7 7 6 5 5 5 5 5 6 6 6 6 6 5 5 5 5 5 4 4 4 4 4 3 3 4 5 7 8 8 8 8 7 8 9 10 10 10 10 10 10
11 12 13 13 12 11 10 9 9 10 10 11 12 12 11 11 12 12 12 12 12 12 12 13 13 13 14 14 14 15 15 14 15 15 16 16 16 15 15 15 15 14 13 12 11 11 10 9 8 7 6 5 5 5 5 5 6 6 6 6 6 6 5 5 5 5 5 5 4 4 4 5 6 7 8 9 8 8 9 9 10 11 11 11 12 12 12
13 13 12 11 10 9 9 9 9 10 10 9 9 9 9 9 9 9 9 8 8 8 9 10 11 12 13 13 14 14 14 14 14 14 14 14 14 14 14 13 13 13 12 12 12 12 11 11 10 9 8 7 6 6 5 5 5 5 5 5 5 5 6 6 6 5 4 3 3 4 5 6 7 7 8 8 8 8 8 9 9 10 11 11 12 12 12
12 12 12 11 10 10 9 9 8 8 7 6 6 6 6 6 7 7 7 6 6 7 8 9 10 11 12 13 14 15 15 15 14 14 14 13 14 13 13 13 13 12 12 12 12 11 11 11 10 10 10 9 8 7 5 5 4 4 4 3 3 4 4 5 5 5 5 5 5 4 4 5 6 6 6 7 7 7 8 8 8 9 9 9 10 10 12
9 9 9 9 9 8 8 8 7 5 4 4 3 3 4 4 5 6 6 6 6 7 8 9 9 10 11 12 13 13 14 14 14 13 13 13 13 13 13 13 13 12 12 12 12 12 12 11 11 11 11 10 9 8 6 5 4 4 3 3 3 4 4 4 5 5 5 5 4 3 4 5 5 5 5 6 6 6 6 7 7 6 7 8 9 11 13
7 7 7 8 7 7 7 7 6 5 5 4 2 1 2 3 4 5 6 6 6 7 7 7 7 8 10 11 12 12 13 12 12 12 12 12 12 12 12 12 12 12 13 13 13 12 12 12 12 12 12 11 11 10 9 8 6 4 3 3 3 3 3 3 4 5 5 4 4 4 5 5 4 3 4 5 6 5 6 6 6 6 7 9 11 13 14
Wind_Direction
244 240 249 217 215 250 252 251 255 249 232 213 214 235 213 172 231 255 170 190 224 215 213 231 232 237 221 188 200 198 176 170 161 152 144 127 109 95 76 56 43 30 19 11 4 359 355 351 347 344 341 340 337 333 329 325 319 314 310 305 304 304 306 308 309 307 304 294 277 270 270 271 270 270 272 273 272 271 272 269 262 257 250 241 238 239 239
255 243 244 199 213 246 248 240 243 245 245 238 233 241 224 209 244 277 104 223 237 213 224 248 243 238 202 163 198 202 178 169 164 158 147 125 100 81 62 44 30 17 6 358 351 347 344 340 337 334 333 332 330 327 324 321 318 314 310 306 303 301 298 297 297 297 297 297 294 289 286 281 273 267 266 268 271 269 270 269 261 252 245 238 234 235 236
261 254 257 233 223 241 250 250 255 257 251 245 240 245 235 232 260 269 223 245 253 231 236 256 263 264 256 253 233 184 170 167 160 148 128 106 76 53 40 29 21 11 0 353 346 341 337 333 330 328 327 327 325 322 320 319 318 317 315 311 307 304 301 296 292 292 291 290 290 289 289 286 278 271 268 268 271 270 269 266 256 247 240 234 230 231 232
257 234 256 259 256 264 257 249 253 252 245 238 230 223 204 210 240 247 234 244 259 247 242 257 259 259 263 262 220 167 164 161 150 129 99 76 48 31 22 16 12 6 359 353 348 342 336 332 330 327 325 324 321 319 318 317 317 316 315 314 311 307 305 302 297 293 290 288 287 286 285 282 278 275 272 269 267 267 266 263 255 245 236 229 226 227 227
260 241 276 304 337 292 262 229 231 243 240 235 233 226 210 207 223 240 242 252 291 342 265 253 246 227 240 232 171 156 159 156 143 109 73 52 30 17 10 4 359 355 351 347 343 339 334 332 330 328 326 323 319 317 317 317 317 316 314 313 311 309 307 305 302 298 293 289 285 283 281 278 274 273 273 270 265 260 261 261 253 241 231 225 222 223 224
265 360 27 6 269 261 255 114 222 249 249 248 247 250 255 235 234 260 274 279 310 319 271 260 280 90 94 117 135 153 163 160 144 93 54 29 14 6 359 353 348 344 341 338 335 332 328 326 324 324 323 320 316 314 314 315 316 316 315 312 310 309 308 307 303 300 295 290 286 282 277 273 269 267 269 271 267 257 253 253 246 234 226 220 218 219 220
268 40 51 248 246 253 308 16 302 250 258 259 254 275 356 359 302 297 304 290 286 293 292 306 21 44 38 45 74 157 177 169 146 63 28 9 1 356 348 343 340 338 334 331 328 326 324 322 322 322 321 319 316 313 312 312 313 313 312 311 310 310 309 307 303 299 294 288 284 280 275 271 267 263 264 267 266 259 250 249 243 232 222 216 214 214 214
219 144 181 212 271 313 303 307 338 265 266 265 224 170 56 29 353 330 350 349 339 343 18 51 32 18 19 42 64 64 166 180 172 10 3 355 348 343 337 333 333 332 328 326 323 321 320 320 321 321 321 319 318 316 314 314 313 310 307 305 307 309 309 306 301 297 292 287 282 277 274 271 266 262 262 263 262 255 246 244 238 225 217 213 212 210 209
186 218 221 236 315 308 279 272 23 315 291 17 300 197 78 30 355 354 9 14 22 25 33 41 27 15 13 66 74 59 61 156 315 341 343 340 334 330 327 326 326 325 321 319 318 316 316 316 318 319 318 316 315 314 314 315 313 309 305 302 303 305 305 303 300 295 291 285 279 272 267 265 263 262 262 262 258 248 242 238 228 218 212 209 207 206 208
163 225 257 264 279 281 257 186 15 276 242 245 255 221 126 60 7 354 358 12 19 16 19 20 12 6 342 220 90 49 26 1 343 333 329 328 325 322 321 320 319 318 315 314 313 312 313 313 315 316 314 313 312 310 311 312 309 306 303 302 303 303 302 300 298 293 287 281 275 268 261 257 256 256 256 253 245 239 238 231 219 210 204 199 198 201 206
167 207 247 241 227 250 281 270 320 297 231 199 208 231 197 95 4 347 343 356 6 9 8 7 2 354 316 261 322 351 344 336 333 329 325 324 321 320 320 317 314 312 311 310 310 310 310 311 313 313 311 310 308 307 308 308 304 302 301 302 301 300 299 298 295 291 286 279 271 264 259 253 249 248 246 240 232 229 225 217 207 199 193 190 191 193 197
192 203 245 245 226 257 273 272 309 314 210 193 222 247 226 31 340 334 337 338 347 353 352 355 359 310 295 304 318 324 324 323 324 323 320 318 317 317 317 314 310 309 308 308 308 308 309 310 312 312 311 308 305 304 305 303 301 301 302 300 298 295 294 294 292 288 286 281 272 262 254 248 244 240 234 229 229 222 207 195 185 177 174 176 180 183 193
214 217 249 265 258 251 235 286 329 11 173 208 234 260 325 325 313 318 324 323 336 339 328 313 278 283 300 309 310 312 314 316 317 316 315 313 311 310 311 310 308 306 306 306 306 307 309 311 313 312 310 306 303 303 303 301 302 304 302 298 296 294 292 290 288 285 284 283 274 259 249 243 236 228 223 226 223 207 189 176 166 160 160 165 176 193 219
240 215 240 283 289 180 143 336 360 80 160 229 251 305 317 308 302 307 305 312 338 337 320 303 293 299 308 312 311 311 312 312 313 313 314 314 311 308 306 303 303 304 305 306 307 309 312 314 313 311 307 302 302 303 302 302 305 304 300 298 298 297 292 287 284 282 282 279 268 251 238 227 218 213 212 210 200 186 175 169 167 167 170 180 199 219 236
279 215 214 277 291 139 91 18 16 57 339 299 312 321 318 314 310 302 293 304 333 333 322 314 310 310 312 312 312 312 311 310 310 309 310 312 312 311 307 301 299 302 304 306 308 311 315 316 313 307 302 300 302 302 302 305 306 302 299 300 299 295 289 284 281 279 276 266 251 234 219 211 210 202 189 177 170 165 162 164 166 167 168 173 179 179 179
246 213 187 243 41 101 47 338 319 300 289 292 309 319 316 313 314 306 290 295 312 321 320 318 315 314 312 310 310 310 308 306 306 305 306 308 310 311 310 304 300 300 302 305 309 312 315 315 310 304 302 301 302 303 304 305 305 303 301 300 296 290 285 281 276 268 252 233 222 215 207 201 192 176 161 153 149 147 150 153 152 145 135 129 122 111 103
263 269 270 284 292 299 306 303 294 290 286 287 300 308 303 302 315 320 307 301 309 317 317 315 314 313 311 309 307 305 303 301 301 302 303 304 306 309 309 306 302 299 300 304 308 311 314 312 306 303 304 304 302 301 302 304 306 306 303 298 292 285 276 265 250 234 220 211 204 195 186 178 165 154 148 145 142 141 141 137 130 121 112 105 100 94 86
302 280 264 271 281 291 303 306 304 304 301 300 310 314 307 304 316 321 316 312 315 317 314 311 308 306 306 305 303 300 299 298 298 299 299 299 301 304 305 304 302 300 300 303 307 310 310 308 305 306 306 304 301 299 301 305 308 307 301 291 280 265 247 235 227 216 197 179 168 162 158 153 147 143 144 145 144 141 136 128 119 112 105 99 93 84 72
299 282 268 287 291 297 307 309 308 310 312 316 323 323 318 315 315 314 311 310 312 311 308 304 301 300 302 302 301 300 299 298 298 298 296 296 299 301 301 301 299 298 299 302 305 306 305 304 305 307 306 303 300 299 303 307 308 305 298 282 258 237 223 209 192 175 160 151 147 145 143 141 140 140 142 143 138 130 125 121 116 111 105 98 87 74 62
267 275 285 292 294 298 302 302 303 308 312 316 318 316 313 313 311 308 305 304 303 302 300 297 296 298 299 300 301 302 301 299 298 296 295 296 298 300 299 297 296 296 297 300 302 302 301 301 303 306 307 304 300 300 305 309 309 307 296 269 234 203 179 162 152 147 143 140 138 137 137 140 141 139 137 133 126 121 118 115 111 106 98 88 74 61 51
284 282 287 292 296 301 301 299 299 302 306 308 309 309 310 309 307 307 306 302 297 295 293 292 292 294 295 298 300 300 298 297 295 293 293 295 296 296 296 295 294 294 295 297 298 297 298 299 301 304 305 300 295 299 307 310 309 284 232 193 167 154 146 140 136 134 133 133 133 132 134 134 132 129 126 123 121 119 115 108 101 95 87 77 65 52 41
290 288 299 307 309 303 298 299 300 299 300 302 301 301 303 302 302 303 304 300 294 288 284 283 286 290 294 297 297 296 294 293 291 291 292 293 293 292 293 292 291 290 291 294 294 294 297 300 300 301 301 292 284 292 308 308 145 147 144 136 131 130 129 128 128 129 130 131 132 133 133 131 128 126 124 121 117 114 110 103 95 87 77 66 55 43 34
291 290 296 302 300 289 288 294 298 298 298 296 292 293 295 296 297 298 296 294 291 285 278 278 283 290 295 296 296 294 291 289 289 289 288 288 289 290 290 288 286 286 289 291 290 291 296 298 297 299 293 272 254 253 171 151 144 137 131 126 124 125 126 127 129 131 132 133 136 138 135 131 128 127 126 122 116 110 104 98 89 78 66 55 44 35 27
289 291 296 297 292 285 287 293 297 299 300 296 292 292 293 292 290 288 284 284 286 285 283 283 287 292 295 295 294 293 291 290 289 286 283 283 284 286 285 283 283 285 288 289 288 290 292 292 295 296 276 236 209 174 158 154 144 134 128 127 127 128 128 128 131 133 134 135 138 138 135 130 129 128 127 124 120 114 105 92 80 66 52 41 33 26 20
292 297 301 298 289 286 289 292 294 299 305 307 300 294 292 288 282 279 278 279 281 283 285 288 291 294 294 293 294 295 294 291 289 285 283 283 283 283 283 282 282 285 287 285 285 285 284 285 289 282 250 219 198 171 158 152 143 136 133 131 131 132 133 134 136 137 136 136 138 138 135 131 129 126 123 121 120 117 111 97 77 56 40 29 22 17 12
300 300 301 296 289 289 292 292 292 297 304 305 299 294 292 287 281 279 279 279 280 283 285 287 291 293 293 293 295 296 294 290 287 285 285 285 285 285 284 283 282 282 282 281 281 278 274 276 276 259 233 208 185 167 157 151 145 141 139 137 136 137 140 139 139 139 140 142 143 142 136 131 126 121 117 114 112 112 111 102 81 46 26 17 11 8 5
304 299 296 290 287 290 293 293 294 298 300 300 299 298 297 293 288 285 284 283 284 286 286 288 290 293 294 294 294 292 289 286 284 285 288 290 291 290 288 285 284 282 279 277 274 268 262 260 252 235 208 173 158 156 155 153 150 147 145 146 148 148 149 148 147 147 150 153 153 147 139 132 127 121 116 111 106 101 96 88 64 16 1 360 359 359 358
306 303 294 285 285 290 294 297 298 300 302 303 304 302 301 299 298 296 293 293 295 294 292 292 292 292 293 293 291 289 287 285 284 285 286 287 287 287 286 286 286 283 278 273 264 252 244 236 225 209 180 156 151 153 156 158 159 156 156 160 163 163 163 162 160 158 157 161 162 155 144 135 131 126 118 112 107 100 92 78 25 345 340 342 346 348 349
308 306 301 296 294 295 298 302 302 302 304 307 307 303 302 302 303 301 299 300 300 297 295 294 293 292 291 288 285 285 286 284 283 282 280 281 282 283 286 288 288 283 275 263 244 231 228 219 206 189 169 156 155 159 162 166 167 166 168 173 176 176 175 172 171 170 168 166 169 167 156 141 136 135 128 121 121 121 115 355 336 335 332 333 338 338 337
309 309 307 304 301 301 303 305 306 306 308 309 307 302 300 301 302 302 302 304 303 302 301 298 291 285 283 280 280 284 288 287 286 285 285 287 290 292 295 298 292 280 274 263 238 225 215 199 185 174 165 162 164 168 173 177 178 181 191 198 195 192 190 185 183 185 184 178 176 178 175 164 153 152 146 141 150 175 285 319 329 333 331 330 330 324 323
310 311 310 308 307 309 310 311 312 314 315 314 312 310 308 306 305 304 306 310 311 307 297 276 261 265 276 283 288 294 297 294 293 295 295 296 296 298 299 287 263 249 241 215 191 189 184 175 169 166 164 164 168 174 179 181 182 188 197 199 197 199 199 192 187 190 191 185 179 184 191 195 191 184 177 178 207 282 325 328 327 330 328 324 318 315 320
313 314 317 316 314 315 315 315 316 318 317 316 318 323 323 315 307 307 310 313 314 300 229 202 236 288 318 321 314 317 328 342 352 357 12 15 354 298 228 200 194 189 178 168 167 167 159 154 158 163 164 164 172 181 184 182 182 189 195 196 197 200 196 189 185 185 183 181 180 186 195 199 200 199 199 211 257 321 341 333 326 328 325 318 313 316 323
319 322 325 321 316 315 317 316 314 314 315 317 320 324 322 310 305 311 321 350 59 85 89 79 69 69 75 77 76 78 83 90 93 92 90 89 94 104 115 130 145 149 143 142 148 149 141 140 149 159 164 170 183 193 194 194 193 192 194 194 190 185 181 180 181 178 176 178 185 191 192 192 193 196 200 211 274 336 342 335 329 326 320 314 313 318 324
327 323 318 314 313 314 313 311 310 314 322 328 329 326 320 314 55 94 104 101 89 79 80 83 85 88 89 89 89 88 87 85 82 82 85 89 93 97 102 111 125 135 132 126 128 131 132 135 141 148 154 162 174 183 188 188 184 186 190 188 180 175 174 175 175 174 173 178 184 185 184 185 189 197 208 231 298 331 333 330 327 321 315 312 315 319 326
328 320 315 317 320 318 312 310 313 320 333 350 22 73 95 104 106 105 100 93 90 92 95 94 93 91 87 84 83 80 78 76 74 76 81 86 88 90 96 101 110 119 121 116 111 111 113 117 122 127 134 142 146 151 156 158 159 169 175 172 169 170 172 169 169 171 172 173 175 176 179 187 200 213 232 276 314 327 327 324 319 316 314 317 321 326 331
329 324 324 328 329 323 318 323 329 349 105 113 111 107 103 103 102 100 97 95 96 97 95 90 87 84 78 75 74 73 72 71 70 70 73 76 78 83 89 91 92 98 101 99 97 98 102 104 107 114 122 128 130 132 137 145 157 166 163 157 157 166 169 167 170 174 172 166 168 175 183 196 214 233 263 300 314 317 316 316 317 318 321 327 332 335 336
334 331 331 338 346 358 30 64 98 122 122 115 109 105 102 99 96 94 93 91 88 85 82 79 78 76 73 72 72 72 71 71 70 68 67 70 74 79 80 78 78 81 83 82 82 90 98 103 109 116 120 122 123 124 127 140 153 155 148 145 150 161 166 171 177 180 174 165 167 174 183 194 225 270 297 306 309 310 311 314 319 323 328 333 338 339 339
345 349 10 63 90 99 102 105 110 113 110 106 102 99 98 97 96 93 89 84 79 76 73 72 73 75 75 75 76 77 76 74 72 70 67 66 68 71 71 69 70 72 73 72 74 80 88 96 107 116 119 119 120 118 116 117 120 121 122 127 142 154 162 170 173 170 167 164 163 166 182 225 270 291 297 298 299 304 309 315 321 326 331 336 339 341 343
21 61 93 104 106 106 106 106 104 103 102 102 100 99 98 97 95 93 90 86 82 79 77 75 75 75 75 75 78 79 79 77 75 74 71 68 68 69 70 69 70 71 73 76 79 81 82 86 94 98 99 100 102 103 101 99 101 107 113 119 127 140 152 160 160 156 152 150 157 193 243 260 273 282 286 290 297 303 310 316 321 326 332 337 340 342 346
80 97 102 106 107 107 107 105 103 102 101 100 99 97 95 93 91 88 87 85 84 82 80 78 76 75 76 77 79 80 80 79 78 77 77 76 75 75 75 74 73 74 76 78 80 82 85 88 90 92 92 93 93 93 94 96 99 108 116 121 125 136 149 158 159 156 155 170 210 238 250 257 264 272 277 286 297 304 312 319 325 332 338 343 346 350 354
106 108 109 111 111 110 108 106 104 102 100 98 96 93 90 87 85 84 82 82 82 79 78 77 77 77 79 79 79 80 80 80 78 78 78 77 75 75 76 75 74 74 75 75 77 81 85 88 90 91 91 91 90 90 93 98 104 109 113 116 121 127 133 139 145 147 150 162 180 193 208 229 246 258 271 290 306 316 325 334 342 350 355 358 2 7 11
115 117 117 117 114 111 109 107 104 103 100 96 92 90 87 84 83 82 81 81 80 78 77 77 78 79 79 78 77 76 75 73 74 74 74 73 72 72 74 75 75 75 75 76 78 81 85 88 91 91 90 90 89 89 93 101 106 108 110 113 115 118 121 126 131 134 133 133 136 145 174 215 240 258 278 303 329 349 2 7 7 9 11 12 15 18 20
125 125 125 121 117 114 111 107 104 103 101 97 93 89 85 81 80 80 81 82 81 80 79 78 77 76 76 75 75 74 72 69 69 69 68 67 67 66 67 68 68 67 68 69 70 73 76 79 79 79 79 81 83 84 88 94 97 99 103 106 106 107 109 110 110 112 113 117 127 140 159 180 186 149 90 60 48 42 38 32 30 28 25 22 21 21 20
133 134 132 128 123 119 115 111 107 105 103 99 95 90 84 81 80 81 82 85 85 83 82 80 77 74 72 71 71 72 72 71 71 70 70 70 68 64 62 61 60 58 56 55 56 58 62 65 66 66 67 69 71 72 75 77 80 82 83 83 82 82 82 81 82 85 90 99 112 125 130 115 93 79 71 61 49 43 45 46 45 41 34 29 27 25 21
143 141 139 136 133 127 121 116 111 108 104 100 95 89 84 82 80 79 79 81 83 83 82 79 76 72 69 66 64 65 66 67 68 67 67 67 67 64 61 60 61 59 55 50 48 49 50 49 49 49 50 52 55 58 60 62 65 67 67 67 67 70 72 72 73 77 85 97 112 118 110 90 71 53 38 31 30 33 33 30 24 21 20 19 20 20 18
155 151 145 141 138 134 128 121 115 111 108 102 96 90 84 79 74 71 70 71 72 72 71 69 66 63 60 57 56 55 53 53 56 57 56 56 57 57 56 56 58 59 56 54 53 54 51 45 38 32 31 30 30 30 33 38 41 45 49 52 54 56 60 66 72 79 84 90 93 89 76 55 39 30 26 26 29 30 29 22 14 10 10 10 8 7 9
162 159 153 147 143 140 136 130 122 116 110 103 97 93 86 75 67 63 60 58 59 61 62 61 59 57 54 52 52 51 47 44 46 49 49 48 47 46 45 44 44 44 43 44 45 46 46 45 41 32 24 18 14 9 8 7 7 8 14 21 26 31 39 46 54 65 74 78 76 71 57 39 29 27 28 32 36 37 33 27 23 21 21 20 15 12 12
131 139 141 142 144 143 140 136 130 122 115 106 98 93 84 72 63 59 54 51 52 57 61 61 60 58 55 53 54 54 52 48 48 49 48 47 44 42 40 39 37 35 33 33 33 34 33 32 29 25 21 16 9 1 355 353 352 353 355 359 5 10 15 23 36 54 71 80 75 55 40 35 34 31 32 38 42 40 34 31 29 26 25 25 22 18 17
105 109 113 120 126 129 130 131 130 125 117 107 96 88 80 69 61 57 55 52 50 54 60 61 58 55 52 49 49 50 50 50 50 51 50 48 45 43 41 40 38 34 31 30 29 29 27 23 18 15 14 12 11 8 3 357 353 352 352 357 1 3 6 17 33 49 61 70 68 52 40 38 40 40 38 39 39 36 36 36 33 28 26 26 23 18 18
117 113 110 111 115 120 126 131 132 128 121 112 97 85 76 65 55 53 57 55 48 47 53 53 49 47 45 43 42 42 43 43 43 44 43 40 38 36 34 33 34 34 34 32 31 30 29 26 21 17 14 13 15 16 11 3 3 9 12 12 14 13 14 22 30 34 38 49 59 57 41 37 42 42 38 37 38 37 36 35 30 26 26 27 24 23 28
142 135 130 127 127 129 132 136 138 138 139 134 112 85 70 57 45 44 51 55 47 39 38 38 36 38 39 39 38 39 41 41 41 39 35 32 28 25 22 21 24 28 31 33 34 33 32 29 27 25 24 24 25 25 21 17 22 35 38 35 39 47 48 41 35 32 38 50 59 51 38 42 50 45 34 35 42 41 33 27 26 30 37 41 40 41 44
178 173 169 166 163 160 156 154 155 160 168 173 172 126 71 48 32 30 40 50 48 40 33 27 26 31 37 38 37 38 39 40 39 37 32 26 22 19 15 15 17 21 25 30 33 34 32 31 30 31 31 31 30 31 30 32 37 46 50 56 67 74 66 53 46 43 41 43 48 50 52 56 54 33 25 37 46 41 27 25 34 51 59 56 51 48 48
Height
1492 1494 1494 1497 1497 1494 1493 1493 1491 1490 1492 1494 1493 1490 1489 1491 1489 1483 1482 1484 1484 1482 1481 1481 1481 1482 1483 1485 1485 1486 1487 1488 1488 1489 1490 1490 1490 1490 1490 1490 1490 1490 1489 1489 1489 1489 1489 1489 1489 1489 1489 1489 1489 1489 1488 1488 1488 1487 1487 1486 1487 1487 1487 1487 1487 1486 1486 1486 1486 1486 1486 1486 1486 1487 1488 1489 1489 1491 1493 1494 1496 1499 1501 1502 1503 1503 1504
1492 1493 1494 1496 1496 1494 1493 1492 1491 1492 1492 1492 1491 1488 1488 1489 1486 1484 1487 1486 1481 1480 1481 1479 1479 1481 1482 1484 1484 1485 1485 1486 1487 1488 1489 1489 1490 1490 1490 1490 1490 1489 1489 1489 1488 1488 1488 1488 1488 1488 1487 1487 1487 1486 1486 1486 1486 1485 1485 1485 1485 1485 1485 1485 1485 1484 1484 1483 1483 1483 1483 1483 1483 1483 1484 1484 1485 1487 1488 1490 1492 1494 1495 1497 1498 1499 1499
1492 1491 1492 1494 1494 1493 1492 1490 1491 1492 1491 1491 1491 1490 1491 1491 1488 1487 1490 1489 1483 1480 1480 1480 1479 1481 1482 1482 1483 1484 1484 1485 1486 1487 1488 1488 1489 1489 1489 1489 1489 1488 1488 1488 1488 1488 1487 1487 1487 1486 1486 1485 1485 1484 1484 1484 1483 1483 1482 1483 1483 1483 1483 1483 1482 1481 1481 1480 1480 1480 1480 1480 1480 1480 1480 1481 1482 1483 1485 1486 1488 1489 1491 1493 1494 1496 1497
1493 1490 1490 1491 1492 1494 1494 1492 1492 1490 1488 1488 1488 1488 1488 1488 1485 1484 1486 1486 1480 1478 1479 1479 1479 1480 1480 1481 1482 1483 1483 1484 1486 1487 1487 1487 1487 1487 1488 1488 1487 1487 1487 1487 1487 1487 1487 1486 1486 1485 1485 1484 1483 1483 1482 1481 1481 1480 1480 1480 1480 1480 1480 1480 1479 1479 1478 1478 1478 1478 1478 1478 1477 1477 1477 1478 1479 1480 1481 1482 1484 1485 1487 1489 1491 1493 1494
1494 1492 1494 1493 1495 1495 1491 1487 1487 1485 1482 1484 1483 1482 1483 1483 1482 1482 1482 1479 1476 1477 1479 1478 1477 1478 1479 1479 1481 1482 1483 1484 1485 1486 1486 1486 1486 1486 1486 1486 1486 1486 1486 1486 1485 1485 1485 1485 1484 1484 1484 1483 1482 1481 1480 1479 1478 1478 1477 1477 1476 1476 1476 1476 1476 1476 1475 1475 1475 1475 1475 1475 1474 1474 1474 1475 1476 1477 1478 1479 1481 1482 1484 1486 1488 1489 1491
1496 1497 1498 1498 1499 1495 1485 1481 1484 1483 1481 1481 1480 1480 1481 1482 1482 1481 1479 1479 1479 1480 1480 1478 1477 1478 1479 1479 1480 1481 1482 1483 1484 1485 1485 1485 1485 1485 1485 1484 1484 1484 1484 1484 1483 1483 1483 1483 1483 1482 1482 1481 1480 1479 1478 1477 1476 1476 1475 1474 1473 1473 1473 1473 1473 1472 1472 1472 1471 1472 1472 1472 1471 1471 1471 1472 1472 1474 1475 1476 1477 1479 1481 1483 1485 1487 1488
1499 1501 1502 1503 1500 1489 1480 1482 1485 1484 1482 1481 1481 1481 1482 1484 1484 1482 1481 1480 1480 1479 1478 1479 1479 1479 1479 1480 1480 1481 1481 1482 1483 1484 1484 1484 1484 1484 1483 1483 1483 1482 1482 1482 1481 1481 1481 1481 1480 1480 1479 1479 1478 1477 1476 1475 1474 1474 1472 1471 1471 1470 1470 1470 1469 1468 1468 1468 1467 1468 1468 1468 1468 1468 1468 1469 1469 1470 1471 1473 1474 1476 1478 1480 1482 1484 1486
1502 1502 1502 1501 1494 1484 1480 1483 1483 1482 1482 1482 1480 1481 1483 1484 1484 1483 1481 1480 1479 1479 1479 1479 1479 1479 1479 1480 1480 1480 1481 1482 1483 1483 1483 1483 1483 1483 1482 1482 1481 1481 1480 1480 1479 1479 1478 1478 1477 1477 1476 1475 1474 1473 1473 1472 1472 1471 1470 1469 1468 1467 1466 1466 1465 1464 1464 1464 1464 1464 1464 1464 1464 1465 1465 1465 1466 1467 1468 1470 1472 1474 1476 1478 1479 1481 1483
1500 1501 1498 1493 1490 1486 1482 1482 1483 1484 1483 1483 1482 1481 1483 1484 1484 1483 1481 1479 1479 1479 1479 1479 1479 1479 1479 1479 1479 1480 1481 1482 1482 1482 1482 1482 1481 1481 1481 1481 1480 1480 1479 1478 1477 1476 1476 1476 1475 1474 1473 1472 1471 1470 1469 1469 1468 1467 1466 1465 1465 1464 1463 1462 1461 1461 1460 1460 1460 1460 1460 1460 1461 1461 1462 1462 1463 1465 1466 1468 1469 1471 1474 1476 1478 1480 1481
1499 1501 1498 1495 1494 1491 1484 1482 1485 1485 1484 1485 1485 1483 1483 1484 1484 1483 1481 1480 1479 1479 1479 1479 1479 1478 1477 1478 1478 1480 1481 1481 1482 1481 1481 1481 1480 1480 1480 1479 1479 1478 1477 1476 1476 1475 1474 1473 1472 1472 1470 1468 1467 1466 1465 1465 1464 1463 1462 1462 1461 1460 1459 1458 1458 1457 1457 1456 1456 1456 1456 1456 1457 1457 1458 1459 1460 1462 1464 1465 1467 1469 1472 1475 1477 1478 1479
1498 1499 1497 1496 1495 1489 1484 1484 1485 1484 1484 1485 1484 1482 1481 1482 1484 1483 1482 1481 1481 1480 1480 1479 1479 1478 1478 1477 1477 1479 1480 1480 1480 1480 1480 1480 1479 1479 1479 1478 1477 1476 1475 1474 1473 1472 1471 1470 1470 1469 1467 1465 1464 1462 1462 1462 1460 1459 1458 1458 1457 1456 1454 1454 1453 1453 1453 1452 1452 1452 1452 1452 1453 1453 1454 1456 1457 1459 1461 1464 1466 1468 1471 1473 1475 1477 1478
1497 1497 1495 1494 1492 1487 1485 1485 1485 1484 1485 1485 1484 1482 1481 1483 1484 1484 1482 1482 1481 1481 1481 1481 1480 1480 1479 1478 1478 1478 1479 1479 1479 1479 1478 1478 1478 1477 1477 1476 1475 1474 1473 1472 1471 1470 1469 1468 1467 1465 1463 1461 1460 1459 1458 1457 1456 1455 1455 1453 1452 1451 1450 1449 1448 1448 1448 1448 1448 1448 1448 1448 1449 1450 1451 1453 1455 1457 1460 1463 1465 1467 1469 1471 1474 1477 1478
1495 1497 1495 1492 1488 1485 1485 1485 1485 1484 1485 1485 1484 1483 1483 1485 1485 1483 1483 1483 1482 1481 1481 1481 1480 1480 1480 1480 1479 1478 1477 1477 1477 1477 1477 1476 1476 1475 1474 1473 1473 1472 1471 1469 1468 1467 1466 1464 1463 1462 1460 1458 1456 1455 1454 1453 1452 1452 1450 1449 1448 1446 1445 1444 1443 1443 1443 1443 1443 1443 1444 1444 1445 1447 1449 1451 1453 1455 1458 1462 1465 1468 1469 1470 1473 1477 1478
1495 1496 1495 1492 1488 1485 1485 1485 1485 1484 1486 1487 1485 1484 1485 1485 1484 1483 1483 1482 1481 1481 1481 1480 1480 1479 1479 1479 1478 1477 1476 1475 1474 1474 1474 1474 1473 1473 1472 1471 1470 1469 1467 1466 1465 1464 1463 1462 1460 1458 1456 1454 1453 1452 1451 1449 1449 1448 1446 1444 1443 1441 1440 1439 1438 1438 1438 1438 1439 1439 1440 1442 1443 1445 1447 1449 1451 1454 1458 1462 1465 1467 1469 1470 1473 1476 1478
1496 1497 1498 1496 1490 1485 1485 1486 1485 1486 1487 1487 1486 1484 1484 1484 1483 1482 1482 1481 1480 1480 1479 1478 1478 1477 1477 1477 1476 1475 1474 1473 1472 1472 1471 1470 1470 1469 1468 1468 1467 1466 1464 1463 1462 1461 1460 1459 1457 1455 1454 1451 1450 1449 1447 1446 1445 1443 1441 1440 1438 1436 1435 1434 1434 1433 1433 1434 1434 1436 1438 1440 1442 1443 1446 1449 1452 1455 1459 1462 1465 1466 1468 1470 1473 1475 1476
1496 1497 1495 1491 1487 1485 1486 1487 1487 1487 1487 1486 1485 1484 1483 1482 1481 1481 1480 1479 1479 1479 1478 1477 1476 1475 1475 1474 1474 1473 1472 1471 1470 1469 1468 1467 1466 1465 1464 1464 1463 1462 1461 1459 1458 1458 1457 1456 1454 1452 1451 1449 1447 1446 1444 1443 1441 1439 1437 1435 1433 1431 1430 1430 1429 1429 1430 1431 1432 1434 1436 1439 1441 1443 1446 1449 1452 1455 1459 1461 1464 1466 1468 1470 1472 1474 1475
1494 1493 1489 1486 1485 1485 1486 1487 1487 1486 1486 1485 1484 1484 1482 1481 1480 1479 1479 1478 1477 1476 1476 1475 1474 1473 1472 1472 1471 1470 1469 1468 1467 1466 1465 1464 1462 1461 1461 1460 1460 1459 1457 1456 1455 1454 1453 1452 1451 1449 1448 1446 1444 1442 1441 1439 1437 1435 1433 1430 1428 1427 1427 1426 1426 1427 1428 1429 1431 1433 1436 1439 1442 1444 1447 1449 1452 1455 1458 1461 1463 1465 1468 1470 1472 1473 1474
1492 1490 1487 1486 1486 1485 1485 1485 1485 1485 1484 1483 1483 1482 1481 1480 1479 1478 1477 1476 1475 1474 1474 1473 1472 1471 1470 1469 1468 1467 1466 1464 1464 1463 1461 1460 1459 1459 1458 1457 1456 1455 1453 1452 1451 1450 1449 1449 1448 1446 1445 1443 1440 1439 1437 1435 1433 1430 1428 1426 1424 1424 1424 1424 1425 1426 1427 1429 1432 1435 1438 1442 1444 1446 1448 1450 1452 1454 1458 1461 1463 1465 1468 1470 1472 1473 1473
1493 1490 1486 1485 1486 1484 1484 1484 1482 1482 1482 1482 1481 1480 1479 1478 1477 1476 1475 1474 1473 1472 1471 1470 1469 1468 1467 1466 1464 1463 1462 1461 1459 1459 1458 1457 1456 1455 1454 1453 1452 1451 1450 1449 1448 1447 1446 1446 1445 1443 1442 1439 1437 1435 1434 1432 1429 1426 1424 1422 1422 1422 1423 1423 1425 1426 1428 1431 1434 1438 1441 1444 1446 1449 1451 1453 1454 1455 1458 1461 1463 1466 1468 1470 1471 1472 1473
1492 1489 1485 1485 1485 1484 1483 1482 1481 1480 1480 1479 1479 1478 1477 1476 1475 1473 1472 1471 1470 1469 1468 1467 1465 1464 1463 1463 1461 1459 1458 1457 1456 1455 1454 1453 1452 1452 1450 1450 1449 1448 1446 1446 1445 1444 1443 1442 1442 1440 1438 1436 1434 1433 1431 1429 1426 1423 1422 1421 1421 1421 1423 1425 1427 1429 1432 1435 1437 1440 1443 1445 1447 1450 1452 1454 1455 1457 1460 1462 1463 1465 1468 1469 1470 1471 1471
1489 1487 1485 1484 1483 1481 1480 1480 1479 1479 1478 1477 1476 1475 1474 1473 1472 1470 1469 1468 1467 1466 1464 1463 1462 1461 1459 1459 1458 1456 1455 1453 1452 1451 1450 1449 1449 1448 1447 1446 1446 1444 1443 1443 1442 1441 1440 1440 1439 1438 1436 1434 1432 1431 1430 1427 1424 1423 1422 1421 1422 1423 1426 1428 1431 1434 1437 1439 1441 1442 1445 1447 1449 1451 1453 1455 1456 1458 1460 1462 1464 1465 1467 1468 1469 1470 1470
1489 1486 1484 1484 1483 1481 1478 1476 1475 1476 1476 1474 1473 1471 1470 1469 1468 1467 1465 1464 1462 1461 1461 1460 1459 1457 1456 1455 1455 1453 1451 1450 1449 1447 1446 1446 1445 1444 1444 1443 1442 1441 1440 1440 1439 1438 1438 1438 1437 1435 1434 1432 1431 1431 1430 1427 1425 1425 1424 1424 1425 1428 1431 1433 1436 1439 1441 1443 1444 1446 1446 1448 1450 1452 1454 1457 1458 1459 1461 1463 1464 1465 1467 1467 1468 1469 1468
1488 1485 1484 1484 1483 1481 1478 1474 1472 1471 1471 1470 1469 1467 1466 1464 1463 1463 1462 1460 1458 1457 1456 1456 1456 1454 1453 1452 1451 1449 1447 1446 1445 1443 1442 1441 1440 1440 1440 1439 1438 1438 1437 1437 1436 1436 1435 1435 1434 1433 1432 1431 1430 1431 1430 1429 1429 1428 1427 1427 1429 1432 1435 1437 1439 1441 1443 1445 1447 1449 1449 1450 1451 1453 1455 1457 1459 1461 1462 1463 1464 1465 1466 1467 1467 1467 1467
1487 1484 1483 1483 1480 1477 1475 1473 1469 1467 1466 1465 1464 1462 1461 1460 1459 1458 1457 1456 1455 1453 1452 1451 1451 1450 1449 1448 1446 1445 1442 1441 1440 1439 1438 1437 1436 1436 1435 1435 1435 1434 1434 1433 1433 1433 1433 1433 1432 1431 1431 1430 1430 1431 1431 1432 1432 1431 1431 1431 1433 1435 1438 1439 1441 1443 1446 1448 1450 1451 1451 1452 1453 1454 1456 1458 1460 1462 1463 1463 1464 1465 1466 1466 1466 1466 1465
1485 1482 1480 1479 1477 1474 1471 1469 1466 1463 1462 1461 1459 1458 1457 1456 1455 1454 1453 1451 1450 1449 1448 1446 1446 1446 1445 1443 1442 1440 1438 1437 1436 1435 1434 1433 1433 1432 1431 1431 1431 1431 1430 1430 1430 1430 1430 1430 1430 1429 1429 1429 1430 1431 1433 1434 1434 1434 1434 1435 1436 1438 1440 1442 1444 1446 1447 1449 1451 1452 1453 1454 1455 1456 1458 1459 1460 1461 1463 1463 1464 1465 1465 1465 1465 1464 1464
1481 1478 1476 1474 1472 1470 1468 1466 1463 1461 1460 1458 1456 1454 1454 1452 1451 1449 1448 1447 1446 1445 1444 1442 1441 1441 1441 1439 1437 1436 1434 1433 1432 1431 1430 1429 1429 1428 1428 1428 1428 1427 1427 1426 1426 1426 1426 1427 1427 1427 1427 1428 1429 1431 1433 1435 1435 1435 1436 1437 1438 1440 1442 1444 1446 1447 1449 1450 1452 1453 1454 1455 1456 1458 1459 1460 1461 1462 1463 1463 1464 1464 1464 1464 1464 1463 1463
1476 1474 1472 1470 1468 1466 1465 1463 1460 1458 1456 1455 1453 1451 1450 1449 1447 1445 1444 1443 1442 1441 1440 1439 1438 1437 1436 1435 1433 1432 1430 1429 1428 1427 1427 1426 1425 1425 1424 1424 1423 1423 1422 1422 1422 1422 1422 1424 1425 1425 1427 1428 1429 1431 1433 1435 1436 1437 1438 1439 1441 1442 1444 1446 1447 1449 1450 1452 1453 1454 1455 1456 1457 1458 1459 1460 1461 1462 1462 1462 1463 1463 1463 1463 1463 1463 1462
1472 1471 1470 1467 1464 1462 1461 1460 1457 1455 1453 1451 1449 1448 1446 1445 1443 1442 1440 1440 1439 1438 1437 1436 1435 1433 1432 1431 1430 1428 1427 1426 1425 1424 1423 1422 1422 1421 1420 1419 1419 1418 1418 1417 1417 1417 1419 1420 1422 1423 1426 1429 1430 1432 1434 1435 1436 1438 1439 1441 1442 1444 1445 1447 1448 1450 1452 1453 1454 1455 1456 1457 1458 1459 1459 1460 1460 1461 1461 1462 1462 1462 1462 1462 1462 1462 1462
1469 1468 1467 1465 1462 1460 1458 1456 1454 1452 1450 1448 1446 1445 1444 1442 1441 1440 1438 1437 1436 1435 1433 1432 1431 1430 1429 1428 1427 1426 1425 1423 1422 1421 1420 1419 1418 1417 1416 1415 1414 1414 1414 1414 1414 1414 1416 1417 1419 1422 1426 1429 1430 1432 1434 1436 1438 1439 1441 1442 1443 1445 1446 1447 1449 1451 1453 1454 1455 1456 1457 1458 1458 1459 1459 1460 1460 1461 1461 1462 1462 1461 1461 1461 1461 1461 1461
1466 1465 1463 1461 1459 1457 1455 1454 1452 1449 1447 1445 1443 1442 1441 1440 1438 1437 1436 1435 1433 1432 1430 1429 1428 1427 1427 1426 1425 1424 1423 1421 1420 1419 1417 1415 1414 1413 1412 1411 1411 1411 1412 1412 1412 1412 1413 1415 1418 1421 1425 1428 1430 1433 1435 1437 1439 1440 1442 1443 1444 1445 1446 1448 1449 1451 1453 1454 1455 1456 1457 1458 1459 1459 1459 1460 1460 1461 1461 1461 1461 1461 1461 1461 1461 1461 1461
1462 1461 1460 1458 1456 1455 1453 1451 1450 1447 1445 1444 1442 1440 1439 1438 1437 1435 1434 1433 1431 1429 1428 1427 1427 1426 1426 1425 1424 1423 1421 1420 1419 1417 1416 1414 1412 1411 1410 1410 1410 1410 1411 1411 1411 1412 1413 1415 1418 1421 1425 1428 1431 1433 1435 1437 1439 1441 1442 1443 1444 1445 1446 1448 1450 1451 1453 1454 1455 1456 1457 1458 1459 1459 1460 1460 1461 1461 1461 1460 1460 1460 1460 1460 1460 1461 1460
1460 1458 1457 1456 1454 1453 1451 1450 1448 1446 1444 1442 1441 1439 1438 1436 1435 1434 1432 1431 1430 1429 1428 1427 1427 1426 1425 1424 1423 1422 1421 1420 1418 1417 1415 1414 1412 1411 1410 1410 1410 1410 1410 1411 1412 1412 1414 1416 1419 1423 1427 1430 1432 1434 1436 1438 1439 1441 1442 1443 1444 1445 1447 1448 1450 1451 1453 1454 1456 1457 1457 1458 1459 1460 1460 1460 1460 1460 1460 1460 1459 1459 1460 1460 1460 1459 1459
1459 1457 1455 1454 1452 1450 1449 1447 1446 1444 1442 1441 1440 1438 1437 1435 1434 1433 1432 1431 1430 1430 1429 1428 1428 1427 1426 1425 1424 1423 1422 1421 1419 1418 1416 1415 1413 1412 1411 1411 1411 1410 1411 1411 1412 1414 1416 1418 1422 1425 1429 1432 1433 1435 1437 1438 1440 1441 1442 1443 1444 1446 1447 1449 1450 1451 1453 1454 1456 1457 1457 1458 1459 1460 1460 1460 1460 1459 1459 1459 1459 1459 1459 1459 1459 1458 1457
1459 1456 1454 1452 1450 1449 1447 1445 1443 1442 1441 1440 1439 1438 1436 1435 1434 1433 1433 1432 1431 1431 1431 1430 1429 1429 1428 1427 1425 1424 1423 1422 1421 1419 1418 1417 1415 1414 1413 1413 1412 1411 1412 1413 1414 1416 1418 1421 1425 1428 1431 1433 1434 1436 1437 1438 1440 1441 1442 1444 1445 1446 1448 1449 1450 1452 1453 1454 1455 1456 1457 1458 1459 1459 1459 1459 1459 1458 1458 1458 1458 1458 1459 1458 1458 1457 1455
1457 1455 1453 1451 1449 1447 1445 1443 1442 1441 1440 1439 1439 1438 1437 1436 1435 1435 1434 1434 1433 1433 1433 1432 1432 1431 1430 1429 1427 1426 1425 1424 1424 1423 1421 1419 1418 1417 1416 1415 1414 1413 1414 1415 1416 1418 1421 1424 1427 1429 1431 1433 1434 1436 1437 1439 1441 1442 1443 1445 1446 1448 1449 1450 1451 1452 1453 1454 1455 1456 1457 1458 1458 1458 1458 1458 1458 1457 1457 1457 1457 1458 1458 1457 1456 1455 1454
1455 1453 1451 1449 1447 1445 1443 1441 1440 1439 1439 1439 1439 1439 1438 1437 1437 1437 1436 1436 1436 1436 1436 1436 1435 1434 1432 1431 1430 1429 1428 1427 1427 1426 1425 1423 1421 1420 1418 1417 1416 1416 1415 1416 1419 1422 1425 1427 1430 1431 1433 1434 1436 1437 1439 1441 1442 1443 1444 1446 1447 1448 1449 1450 1452 1453 1454 1454 1455 1456 1457 1457 1457 1457 1457 1457 1457 1457 1457 1457 1457 1457 1457 1456 1455 1454 1453
1453 1451 1449 1447 1446 1444 1443 1441 1440 1440 1440 1440 1440 1440 1440 1440 1440 1440 1440 1440 1440 1440 1439 1438 1437 1436 1435 1434 1434 1433 1432 1431 1431 1430 1429 1427 1424 1422 1420 1418 1417 1417 1417 1420 1425 1428 1429 1431 1433 1434 1435 1436 1438 1439 1441 1442 1443 1444 1445 1446 1447 1448 1450 1451 1452 1453 1454 1454 1455 1456 1456 1456 1457 1456 1456 1456 1456 1456 1456 1456 1456 1456 1455 1455 1454 1453 1452
1452 1450 1449 1448 1447 1445 1444 1443 1443 1442 1442 1442 1442 1443 1443 1443 1443 1443 1443 1442 1443 1442 1442 1441 1440 1439 1439 1439 1438 1436 1436 1435 1434 1434 1433 1431 1428 1424 1421 1421 1421 1422 1425 1429 1432 1433 1434 1435 1436 1436 1437 1438 1439 1440 1442 1443 1444 1444 1445 1447 1448 1449 1450 1451 1452 1453 1454 1454 1455 1455 1456 1456 1456 1456 1456 1456 1456 1456 1456 1455 1455 1455 1454 1453 1452 1452 1450
1453 1451 1450 1449 1448 1448 1447 1446 1446 1446 1446 1446 1446 1446 1447 1447 1447 1446 1445 1445 1446 1446 1445 1445 1444 1443 1442 1442 1440 1439 1439 1438 1438 1436 1435 1434 1432 1429 1427 1428 1429 1431 1434 1437 1438 1437 1437 1438 1438 1438 1439 1440 1441 1442 1443 1444 1445 1445 1447 1448 1449 1450 1451 1452 1452 1453 1454 1454 1454 1455 1455 1455 1455 1456 1456 1456 1456 1455 1455 1454 1454 1453 1453 1452 1451 1450 1449
1454 1453 1453 1452 1451 1451 1450 1450 1450 1450 1450 1450 1450 1450 1451 1451 1450 1449 1449 1448 1449 1449 1448 1447 1447 1446 1445 1444 1443 1442 1442 1441 1441 1440 1439 1438 1437 1435 1434 1435 1437 1439 1440 1441 1441 1440 1441 1441 1441 1441 1442 1443 1444 1444 1445 1446 1446 1447 1448 1449 1450 1451 1451 1452 1452 1453 1453 1454 1454 1454 1454 1455 1455 1455 1455 1455 1455 1454 1454 1453 1453 1452 1452 1451 1450 1449 1448
1457 1456 1455 1455 1455 1454 1454 1453 1453 1453 1454 1454 1454 1454 1454 1454 1453 1452 1451 1451 1451 1451 1451 1450 1449 1448 1448 1447 1446 1445 1445 1444 1443 1443 1442 1441 1441 1439 1438 1439 1441 1443 1444 1444 1444 1444 1445 1445 1444 1444 1444 1445 1446 1447 1447 1447 1448 1449 1449 1450 1450 1451 1452 1452 1452 1453 1453 1453 1454 1454 1454 1454 1454 1454 1455 1454 1454 1454 1453 1453 1452 1451 1451 1450 1449 1448 1447
1459 1459 1459 1458 1458 1457 1457 1457 1457 1457 1457 1457 1457 1457 1457 1457 1456 1455 1454 1454 1454 1454 1453 1453 1452 1451 1450 1449 1449 1448 1448 1447 1446 1446 1445 1444 1443 1443 1442 1443 1445 1446 1447 1447 1448 1448 1448 1448 1447 1447 1447 1447 1448 1448 1449 1449 1449 1450 1450 1451 1451 1452 1452 1452 1452 1452 1453 1453 1453 1453 1453 1453 1454 1454 1454 1454 1453 1453 1453 1452 1451 1451 1450 1449 1448 1448 1447
1462 1462 1461 1461 1461 1461 1460 1460 1460 1460 1460 1460 1460 1460 1459 1459 1458 1458 1457 1457 1457 1456 1456 1455 1455 1454 1453 1452 1451 1451 1450 1450 1450 1449 1448 1447 1447 1446 1446 1447 1448 1448 1449 1449 1449 1449 1449 1449 1449 1449 1449 1449 1449 1449 1450 1450 1450 1450 1451 1451 1452 1452 1452 1452 1452 1452 1452 1452 1453 1453 1453 1453 1453 1453 1453 1453 1453 1452 1452 1451 1451 1450 1449 1449 1448 1447 1446
1464 1464 1464 1463 1463 1463 1463 1463 1462 1462 1462 1462 1462 1462 1462 1461 1461 1460 1460 1459 1459 1458 1458 1458 1457 1456 1456 1455 1454 1454 1454 1453 1453 1452 1452 1451 1450 1450 1450 1450 1450 1450 1451 1451 1450 1450 1450 1450 1450 1450 1450 1450 1450 1450 1450 1450 1451 1451 1451 1452 1452 1452 1452 1452 1452 1452 1452 1452 1452 1452 1452 1452 1452 1452 1452 1452 1452 1452 1451 1451 1450 1450 1449 1448 1448 1447 1446
1465 1465 1465 1465 1465 1465 1465 1465 1465 1465 1464 1464 1465 1464 1464 1464 1463 1463 1463 1462 1461 1461 1460 1460 1459 1458 1458 1457 1457 1456 1456 1456 1455 1455 1454 1454 1453 1453 1453 1454 1453 1453 1453 1452 1452 1452 1451 1451 1451 1451 1451 1451 1451 1451 1451 1451 1451 1452 1452 1452 1452 1452 1452 1452 1452 1452 1452 1452 1452 1452 1452 1452 1452 1452 1452 1452 1451 1451 1451 1450 1450 1449 1448 1448 1447 1446 1446
1465 1466 1466 1467 1467 1467 1467 1467 1467 1467 1466 1467 1466 1466 1466 1466 1466 1465 1465 1464 1463 1463 1462 1461 1460 1460 1459 1459 1458 1458 1458 1457 1457 1456 1456 1455 1455 1455 1456 1456 1455 1455 1455 1455 1454 1454 1453 1453 1453 1452 1452 1452 1452 1451 1451 1451 1451 1452 1452 1452 1452 1452 1452 1452 1452 1452 1452 1452 1452 1452 1452 1452 1452 1451 1451 1451 1451 1451 1450 1450 1449 1449 1448 1447 1446 1446 1445
1466 1467 1467 1468 1468 1468 1469 1469 1469 1469 1469 1469 1468 1468 1468 1468 1468 1467 1467 1466 1465 1465 1464 1463 1462 1462 1461 1461 1460 1460 1459 1459 1458 1457 1457 1457 1457 1457 1457 1456 1456 1456 1456 1455 1455 1455 1455 1454 1454 1454 1453 1453 1453 1452 1452 1452 1452 1451 1451 1452 1452 1451 1451 1451 1451 1452 1452 1452 1452 1452 1452 1452 1451 1451 1451 1451 1451 1451 1450 1450 1449 1449 1448 1447 1446 1446 1445
1468 1468 1468 1469 1469 1469 1470 1470 1470 1470 1470 1470 1470 1470 1470 1470 1469 1469 1468 1468 1467 1467 1466 1465 1465 1464 1464 1463 1462 1462 1461 1461 1460 1459 1459 1459 1458 1458 1457 1457 1457 1456 1456 1455 1455 1455 1454 1454 1454 1454 1453 1453 1453 1453 1453 1453 1452 1452 1452 1452 1451 1451 1451 1451 1451 1451 1452 1452 1452 1452 1452 1452 1452 1452 1452 1452 1451 1451 1451 1450 1450 1449 1448 1448 1447 1446 1445
1470 1470 1470 1470 1470 1470 1471 1471 1472 1472 1472 1472 1472 1472 1471 1471 1471 1470 1470 1470 1469 1469 1468 1467 1466 1466 1465 1464 1464 1463 1463 1462 1461 1461 1460 1460 1460 1459 1459 1459 1458 1457 1457 1456 1455 1455 1455 1454 1454 1453 1453 1453 1453 1453 1453 1453 1453 1452 1452 1452 1452 1452 1452 1451 1452 1452 1452 1452 1452 1452 1452 1452 1452 1452 1452 1452 1452 1451 1451 1451 1450 1450 1449 1448 1447 1447 1446
1471 1471 1471 1471 1471 1471 1472 1472 1473 1473 1473 1473 1473 1473 1473 1472 1472 1472 1471 1471 1470 1470 1469 1468 1468 1467 1466 1466 1465 1464 1463 1463 1462 1461 1461 1461 1460 1460 1460 1459 1459 1458 1458 1457 1457 1456 1455 1455 1454 1454 1453 1453 1453 1453 1452 1452 1452 1452 1452 1452 1452 1452 1452 1452 1452 1452 1452 1452 1453 1453 1453 1453 1453 1453 1452 1452 1452 1452 1452 1451 1451 1450 1449 1449 1448 1447 1446
1471 1471 1471 1472 1472 1472 1472 1472 1473 1474 1474 1474 1474 1474 1474 1473 1473 1473 1472 1471 1471 1471 1470 1469 1468 1468 1467 1466 1466 1465 1464 1464 1463 1462 1462 1461 1461 1460 1460 1460 1459 1459 1459 1458 1458 1457 1456 1456 1455 1454 1454 1453 1453 1453 1453 1453 1453 1453 1453 1453 1453 1453 1453 1453 1453 1453 1453 1453 1453 1453 1453 1453 1453 1453 1453 1453 1452 1452 1452 1452 1451 1450 1450 1449 1449 1448 1447
1471 1471 1472 1472 1472 1472 1472 1472 1473 1473 1473 1474 1474 1474 1474 1474 1474 1473 1473 1472 1472 1471 1471 1470 1469 1469 1468 1467 1466 1466 1465 1465 1464 1463 1463 1462 1462 1461 1460 1460 1460 1459 1459 1459 1458 1458 1457 1457 1456 1455 1455 1454 1454 1453 1453 1453 1453 1453 1453 1453 1453 1453 1453 1453 1453 1453 1453 1453 1453 1453 1454 1454 1454 1453 1453 1453 1453 1453 1452 1452 1451 1451 1450 1450 1449 1448 1447